CAT702 GCLA-EKBI

Flight info

Callsign CAT702
Flight time N/A
Altitude 34000
Route KONBA UN866 BEXAL DCT LIGRA DCT NSA DCT TOSDI N745 ZMR N873 DELOG DCT YURZI UL14 TEPRA UN867 MOKOR UN873 BAZOS DCT CMB DCT ADUTO N873 MIKRO P614 BAVIL
Aircraft B738/M-SDE2E3FGHIRWXY/LB1

Departure

Time 2026-05-06 11:10
Airport La Palma Airport (GCLA)

Arrival

Time N/A
Airport Billund Airport (EKBI)
Time Latitude Longitude Altitude Speed Heading
2026-05-06 10:43 28.62200 -17.75362 113 ft 0 kts 89°
2026-05-06 11:02 28.62200 -17.75385 110 ft 4 kts 89°
2026-05-06 11:03 28.62200 -17.75412 110 ft 4 kts 85°
2026-05-06 11:03 28.62192 -17.75436 109 ft 4 kts 28°
2026-05-06 11:03 28.62168 -17.75441 111 ft 2 kts 359°
2026-05-06 11:03 28.62162 -17.75441 111 ft 1 kts 359°
2026-05-06 11:06 28.62163 -17.75441 111 ft 1 kts 359°
2026-05-06 11:06 28.62199 -17.75442 110 ft 10 kts 358°
2026-05-06 11:06 28.62294 -17.75444 113 ft 18 kts 360°
2026-05-06 11:07 28.62434 -17.75446 111 ft 23 kts 359°
2026-05-06 11:07 28.62599 -17.75476 108 ft 25 kts 324°
2026-05-06 11:07 28.62761 -17.75563 102 ft 28 kts 358°
2026-05-06 11:07 28.62967 -17.75567 95 ft 31 kts 359°
2026-05-06 11:08 28.63184 -17.75571 88 ft 31 kts 359°
2026-05-06 11:08 28.63393 -17.75576 81 ft 29 kts 359°
2026-05-06 11:08 28.63562 -17.75554 72 ft 20 kts 17°
2026-05-06 11:08 28.63627 -17.75585 67 ft 2 kts 258°
2026-05-06 11:09 28.63611 -17.75593 71 ft 3 kts 184°
2026-05-06 11:09 28.63586 -17.75581 72 ft 4 kts 168°
2026-05-06 11:09 28.63572 -17.75580 73 ft 0 kts 176°
2026-05-06 11:09 28.63408 -17.75575 86 ft 60 kts 179°
2026-05-06 11:10 28.62754 -17.75562 102 ft 126 kts 179°
2026-05-06 11:10 28.61691 -17.75540 230 ft 172 kts 178°
2026-05-06 11:10 28.60490 -17.75492 1117 ft 173 kts 171°
2026-05-06 11:10 28.59336 -17.75016 1964 ft 177 kts 143°
2026-05-06 11:11 28.58751 -17.74387 2562 ft 179 kts 125°
2026-05-06 11:11 28.57815 -17.72698 3170 ft 204 kts 119°
2026-05-06 11:11 28.57317 -17.71744 3348 ft 217 kts 119°
2026-05-06 11:11 28.56528 -17.70233 3800 ft 226 kts 120°
2026-05-06 11:12 28.55714 -17.68678 4356 ft 229 kts 120°
2026-05-06 11:12 28.54883 -17.67100 4910 ft 238 kts 120°
2026-05-06 11:12 28.54015 -17.65457 5518 ft 244 kts 120°
2026-05-06 11:12 28.53443 -17.63610 5907 ft 261 kts 89°
2026-05-06 11:13 28.53933 -17.61604 6303 ft 272 kts 53°
2026-05-06 11:13 28.55215 -17.60005 6962 ft 276 kts 44°
2026-05-06 11:13 28.56567 -17.58437 7672 ft 280 kts 44°
2026-05-06 11:13 28.57938 -17.56841 8402 ft 283 kts 44°
2026-05-06 11:14 28.59324 -17.55228 9132 ft 287 kts 44°
2026-05-06 11:14 28.60728 -17.53594 9853 ft 291 kts 44°
2026-05-06 11:14 28.62142 -17.51948 10424 ft 300 kts 44°
2026-05-06 11:14 28.63653 -17.50191 10591 ft 322 kts 44°
2026-05-06 11:15 28.65276 -17.48302 10767 ft 344 kts 44°
2026-05-06 11:15 28.67000 -17.46294 10920 ft 364 kts 44°
2026-05-06 11:15 28.68819 -17.44174 11069 ft 383 kts 44°
2026-05-06 11:15 28.70704 -17.41972 11444 ft 393 kts 44°
2026-05-06 11:16 28.72625 -17.39724 12004 ft 397 kts 44°
2026-05-06 11:16 28.74558 -17.37461 12608 ft 400 kts 44°
2026-05-06 11:16 28.76512 -17.35173 13160 ft 404 kts 44°
2026-05-06 11:16 28.78485 -17.32863 13686 ft 408 kts 44°
2026-05-06 11:17 28.80472 -17.30534 14167 ft 412 kts 44°
2026-05-06 11:17 28.82460 -17.28205 14653 ft 415 kts 44°
2026-05-06 11:17 28.84479 -17.25838 15161 ft 418 kts 44°
2026-05-06 11:17 28.86515 -17.23449 15646 ft 421 kts 44°
2026-05-06 11:18 28.88565 -17.21042 16123 ft 424 kts 44°
2026-05-06 11:18 28.90630 -17.18616 16595 ft 428 kts 44°
2026-05-06 11:18 28.92716 -17.16165 17050 ft 431 kts 44°
2026-05-06 11:18 28.94816 -17.13695 17505 ft 434 kts 44°
2026-05-06 11:19 28.96926 -17.11212 17940 ft 438 kts 44°
2026-05-06 11:19 28.99061 -17.08699 18379 ft 441 kts 44°
2026-05-06 11:19 29.01202 -17.06176 18759 ft 444 kts 44°
2026-05-06 11:19 29.03335 -17.03661 19144 ft 446 kts 44°
2026-05-06 11:20 29.05500 -17.01107 19535 ft 449 kts 44°
2026-05-06 11:20 29.07683 -16.98530 19909 ft 452 kts 44°
2026-05-06 11:20 29.09876 -16.95939 20294 ft 455 kts 44°
2026-05-06 11:20 29.12083 -16.93330 20693 ft 457 kts 44°
2026-05-06 11:21 29.14299 -16.90709 21068 ft 460 kts 44°
2026-05-06 11:21 29.16529 -16.88070 21427 ft 463 kts 44°
2026-05-06 11:21 29.18775 -16.85409 21785 ft 465 kts 44°
2026-05-06 11:21 29.21025 -16.82742 22137 ft 468 kts 44°
2026-05-06 11:22 29.23293 -16.80053 22482 ft 470 kts 44°
2026-05-06 11:22 29.25575 -16.77345 22810 ft 473 kts 44°
2026-05-06 11:22 29.27864 -16.74626 23110 ft 475 kts 44°
2026-05-06 11:22 29.30166 -16.71889 23446 ft 478 kts 44°
2026-05-06 11:23 29.32475 -16.69144 23742 ft 480 kts 44°
2026-05-06 11:23 29.34796 -16.66381 24018 ft 482 kts 44°
2026-05-06 11:23 29.37091 -16.63647 24305 ft 483 kts 44°
2026-05-06 11:23 29.39452 -16.60833 24598 ft 484 kts 44°
2026-05-06 11:24 29.41789 -16.58046 24866 ft 486 kts 44°
2026-05-06 11:24 29.44135 -16.55246 25127 ft 487 kts 44°
2026-05-06 11:24 29.46489 -16.52433 25390 ft 489 kts 44°
2026-05-06 11:24 29.48815 -16.49654 25653 ft 490 kts 44°
2026-05-06 11:25 29.51179 -16.46826 25922 ft 492 kts 44°
2026-05-06 11:25 29.53553 -16.43983 26186 ft 493 kts 44°
2026-05-06 11:25 29.55928 -16.41138 26504 ft 493 kts 44°
2026-05-06 11:25 29.58293 -16.38302 26900 ft 491 kts 44°
2026-05-06 11:26 29.60557 -16.35368 27311 ft 490 kts 50°
2026-05-06 11:26 29.62646 -16.32272 27707 ft 489 kts 51°
2026-05-06 11:26 29.64669 -16.29131 28160 ft 488 kts 52°
2026-05-06 11:26 29.66674 -16.25982 28560 ft 488 kts 52°
2026-05-06 11:27 29.68683 -16.22840 28910 ft 487 kts 52°
2026-05-06 11:27 29.70700 -16.19715 29284 ft 486 kts 51°
2026-05-06 11:27 29.72728 -16.16600 29674 ft 485 kts 51°
2026-05-06 11:27 29.74758 -16.13496 30014 ft 484 kts 51°
2026-05-06 11:28 29.76788 -16.10399 30338 ft 484 kts 51°
2026-05-06 11:28 29.78809 -16.07315 30699 ft 481 kts 51°
2026-05-06 11:28 29.80789 -16.04289 31091 ft 478 kts 51°
2026-05-06 11:28 29.82782 -16.01239 31452 ft 475 kts 51°
2026-05-06 11:29 29.84769 -15.98196 31746 ft 474 kts 51°
2026-05-06 11:29 29.86747 -15.95162 32034 ft 474 kts 51°
2026-05-06 11:29 29.88726 -15.92125 32341 ft 472 kts 51°
2026-05-06 11:29 29.90693 -15.89104 32668 ft 470 kts 51°
2026-05-06 11:30 29.92655 -15.86089 32992 ft 469 kts 51°
2026-05-06 11:30 29.94608 -15.83085 33293 ft 468 kts 51°
2026-05-06 11:30 29.96625 -15.80151 33574 ft 465 kts 44°
2026-05-06 11:30 29.99042 -15.77707 33838 ft 460 kts 32°
2026-05-06 11:31 30.01771 -15.75831 34135 ft 455 kts 23°
2026-05-06 11:31 30.04724 -15.74553 34323 ft 452 kts 15°
2026-05-06 11:31 30.07750 -15.73507 34437 ft 454 kts 14°
2026-05-06 11:31 30.10786 -15.72491 34546 ft 456 kts 14°
2026-05-06 11:32 30.13831 -15.71472 34735 ft 456 kts 14°
2026-05-06 11:32 30.16873 -15.70440 34925 ft 455 kts 14°
2026-05-06 11:32 30.19918 -15.69392 35068 ft 456 kts 14°
2026-05-06 11:32 30.22918 -15.68347 35199 ft 457 kts 14°
2026-05-06 11:33 30.25965 -15.67277 35358 ft 457 kts 14°
2026-05-06 11:33 30.29010 -15.66204 35535 ft 458 kts 14°
2026-05-06 11:33 30.32058 -15.65127 35679 ft 458 kts 14°
2026-05-06 11:33 30.35112 -15.64048 35811 ft 459 kts 14°
2026-05-06 11:34 30.38170 -15.62967 35970 ft 459 kts 14°
2026-05-06 11:34 30.41223 -15.61887 36080 ft 460 kts 14°
2026-05-06 11:34 30.44296 -15.60800 36072 ft 461 kts 14°
2026-05-06 11:35 30.50416 -15.58633 36086 ft 458 kts 14°
2026-05-06 11:35 30.56495 -15.56478 36080 ft 455 kts 14°
2026-05-06 11:36 30.62527 -15.54337 36091 ft 453 kts 14°
2026-05-06 11:36 30.68539 -15.52201 36085 ft 451 kts 14°
2026-05-06 11:37 30.74506 -15.50078 36094 ft 451 kts 14°
2026-05-06 11:37 30.80506 -15.47941 36096 ft 451 kts 14°
2026-05-06 11:38 30.86523 -15.45795 36098 ft 453 kts 14°
2026-05-06 11:38 30.92561 -15.43638 36102 ft 454 kts 14°
2026-05-06 11:39 30.98618 -15.41471 36093 ft 456 kts 14°
2026-05-06 11:39 31.04693 -15.39295 36100 ft 457 kts 14°
2026-05-06 11:40 31.10792 -15.37108 36114 ft 459 kts 14°
2026-05-06 11:40 31.16907 -15.34911 36100 ft 460 kts 14°
2026-05-06 11:41 31.23021 -15.32711 36106 ft 460 kts 14°
2026-05-06 11:41 31.29124 -15.30439 36092 ft 461 kts 19°
2026-05-06 11:42 31.34731 -15.26777 36114 ft 463 kts 31°
2026-05-06 11:42 31.40071 -15.22550 36106 ft 463 kts 31°
2026-05-06 11:43 31.45363 -15.18357 36101 ft 462 kts 31°
2026-05-06 11:43 31.50696 -15.14183 36108 ft 461 kts 31°
2026-05-06 11:44 31.58704 -15.07949 36107 ft 460 kts 31°
2026-05-06 11:44 31.64039 -15.03792 36109 ft 460 kts 31°
2026-05-06 11:45 31.69351 -14.99645 36106 ft 460 kts 31°
2026-05-06 11:45 31.74689 -14.95471 36111 ft 461 kts 31°
2026-05-06 11:46 31.80031 -14.91288 36110 ft 462 kts 31°
2026-05-06 11:46 31.85379 -14.87094 36113 ft 462 kts 31°
2026-05-06 11:47 31.90730 -14.82892 36107 ft 463 kts 31°
2026-05-06 11:47 31.96092 -14.78675 36110 ft 464 kts 31°
2026-05-06 11:48 32.01470 -14.74440 36114 ft 464 kts 31°
2026-05-06 11:48 32.06807 -14.70231 36114 ft 465 kts 31°
2026-05-06 11:49 32.12187 -14.65981 36113 ft 465 kts 31°
2026-05-06 11:49 32.17567 -14.61726 36115 ft 466 kts 31°
2026-05-06 11:50 32.22952 -14.57460 36116 ft 466 kts 31°
2026-05-06 11:50 32.28338 -14.53189 36115 ft 466 kts 31°
2026-05-06 11:51 32.33728 -14.48907 36114 ft 466 kts 31°
2026-05-06 11:51 32.39121 -14.44616 36113 ft 467 kts 31°
2026-05-06 11:52 32.44520 -14.40314 36112 ft 467 kts 31°
2026-05-06 11:52 32.49901 -14.36021 36109 ft 467 kts 31°
2026-05-06 11:53 32.55287 -14.31717 36114 ft 467 kts 31°
2026-05-06 11:53 32.60669 -14.27410 36112 ft 466 kts 31°
2026-05-06 11:54 32.66042 -14.23104 36113 ft 466 kts 31°
2026-05-06 11:54 32.71394 -14.18808 36109 ft 466 kts 31°
2026-05-06 11:55 32.76770 -14.14486 36107 ft 466 kts 31°
2026-05-06 11:55 32.82145 -14.10160 36107 ft 467 kts 31°
2026-05-06 11:56 32.87518 -14.05828 36106 ft 467 kts 31°
2026-05-06 11:56 32.92899 -14.01483 36109 ft 467 kts 31°
2026-05-06 11:57 32.98273 -13.97138 36107 ft 467 kts 31°
2026-05-06 11:57 33.03655 -13.92779 36110 ft 468 kts 31°
2026-05-06 11:58 33.08127 -13.89152 36105 ft 468 kts 31°
2026-05-06 11:58 33.13509 -13.84780 36110 ft 468 kts 31°
2026-05-06 11:59 33.19759 -13.79682 36106 ft 468 kts 31°
2026-05-06 11:59 33.24268 -13.75982 36101 ft 469 kts 31°
2026-05-06 12:00 33.29610 -13.71592 36104 ft 469 kts 31°
2026-05-06 12:00 33.34995 -13.67161 36110 ft 470 kts 31°
2026-05-06 12:01 33.40378 -13.62727 36103 ft 470 kts 31°
2026-05-06 12:01 33.45766 -13.58282 36107 ft 470 kts 31°
2026-05-06 12:02 33.51155 -13.53830 36112 ft 470 kts 31°
2026-05-06 12:02 33.56536 -13.49377 36107 ft 470 kts 31°
2026-05-06 12:03 33.61894 -13.44936 36105 ft 471 kts 31°
2026-05-06 12:03 33.67288 -13.40458 36103 ft 471 kts 31°
2026-05-06 12:04 33.72675 -13.35980 36101 ft 471 kts 31°
2026-05-06 12:04 33.78062 -13.31494 36106 ft 471 kts 31°
2026-05-06 12:05 33.83443 -13.27006 36102 ft 471 kts 31°
2026-05-06 12:05 33.88822 -13.22513 36101 ft 471 kts 31°
2026-05-06 12:06 33.94202 -13.18013 36104 ft 471 kts 31°
2026-05-06 12:06 33.99572 -13.13513 36105 ft 471 kts 31°
2026-05-06 12:07 34.04918 -13.09027 36102 ft 471 kts 31°
2026-05-06 12:07 34.10291 -13.04510 36101 ft 471 kts 31°
2026-05-06 12:08 34.15669 -12.99981 36097 ft 471 kts 31°
2026-05-06 12:08 34.21039 -12.95453 36104 ft 471 kts 31°
2026-05-06 12:09 34.26418 -12.90911 36101 ft 471 kts 31°
2026-05-06 12:09 34.31807 -12.86389 36101 ft 471 kts 31°
2026-05-06 12:10 34.37201 -12.81878 36103 ft 471 kts 31°
2026-05-06 12:10 34.42554 -12.77392 36103 ft 471 kts 31°